Location: Pacheco
(37.9835°N, 122.0752°W)
Time: 09:49:14
(UTC+00:00)

Cosmos 1766 - Pass Details

Date: 13 April 2024
Orbit: 487 x 504 km, 82.5° (Epoch: 23 May)

Event Time Altitude Azimuth Distance (km) Brightness Sun altitude
Rises 12:46:09 0° 349° (N) 2,571 6.9 -10.0°
Reaches altitude 10° 12:48:16 10° 346° (NNW) 1,683 5.9 -9.6°
Maximum altitude 12:51:55 64° 265° (W) 543 3.0 -9.0°
Drops below altitude 10° 12:55:31 10° 184° (S) 1,666 5.6 -8.3°
Sets 12:57:37 0° 181° (S) 2,541 6.5 -7.9°
